Location: Unspecified
(42.2730°N, 83.7130°W)
Time: 15:07:14
(UTC+00:00)

Cosmos 1933 - Pass Details

Date: 14 December 2025
Orbit: 510 x 517 km, 82.5° (Epoch: 17 January)

Event Time Altitude Azimuth Distance (km) Brightness Sun altitude
Rises 22:25:28 0° 178° (S) 2,623 7.2 -4.4°
Reaches altitude 10° 22:27:37 10° 174° (S) 1,740 6.2 -4.8°
Maximum altitude 22:31:22 59° 95° (E) 602 3.3 -5.4°
Drops below altitude 10° 22:35:08 10° 16° (NNE) 1,750 5.5 -6.0°
Sets 22:37:18 0° 12° (NNE) 2,640 6.4 -6.4°
